Location: ???????
(55.3754°N, 39.3545°E)
Time: 14:27:17
(UTC+00:00)

NOSS 3-1 (C) - Pass Details

Date: 14 April 2026
Orbit: 618 x 1583 km, 63.4° (Epoch: 10 January)

Event Time Altitude Azimuth Distance (km) Brightness Sun altitude
Rises 18:11:03 0° 303° (WNW) 3,447 8.3 -13.8°
Reaches altitude 10° 18:13:21 10° 307° (NW) 2,627 7.2 -14.0°
Maximum altitude 18:19:30 60° 28° (NNE) 1,241 4.1 -14.7°
Enters shadow 18:26:02 15° 105° (ESE) 2,868 5.4 -15.3°
